Location: B�rgermoos
(47.6500°N, 9.0667°E)
Time: 09:26:28
(UTC+00:00)

Cosmos 1626 - Pass Details

Date: 18 September 2020
Orbit: 490 x 495 km, 82.5° (Epoch: 27 October)

Event Time Altitude Azimuth Distance (km) Brightness Sun altitude
Rises 18:38:37 0° 10° (N) 2,590 5.8 -12.4°
Reaches altitude 10° 18:42:21 10° 49° (NE) 1,698 4.5 -13.0°
Enters shadow 18:42:54 11° 58° (ENE) 1,654 4.4 -13.1°
